Regional Weather Roundup
Issued by NWS

Home | Current Version | Previous Version | Text Only | Print | Product List | Glossary Off
Versions: 1 2 3 4 5 6 7 8 9 10 11 12 13 14 15 16 17 18 19 20 21 22 23 24 25 26 27 28 29 30 31 32 33 34 35 36 37 38 39 40 41 42 43 44 45 46 47 48 49 50

000
ASUS43 KLSX 192007
RWRMO

WEATHER SUMMARY FOR MISSOURI
NATIONAL WEATHER SERVICE SPRINGFIELD MO
200 PM CST FRI DEC 19 2014

NOTE: "FAIR" INDICATES FEW OR NO CLOUDS BELOW 12,000 FEET WITH NO
       SIGNIFICANT WEATHER AND/OR OBSTRUCTIONS TO VISIBILITY.
       CURRENT SKY AND/OR WEATHER CONDITIONS ARE NOT AVAILABLE FOR
       CHILLICOTHE AND FARMINGTON.

MOZ001>031-035>038-043-044-053-054-192100-
...NORTHERN AND WESTERN MISSOURI...

CITY           SKY/WX    TMP DP  RH WIND       PRES   REMARKS
KANSAS CTY INT CLOUDY    31  30  96 SW5       30.22F FOG     WCI  26
KANSAS C DTWN  CLOUDY    34  30  85 CALM      30.23F
LEE`S SUMMIT   CLOUDY    34  30  85 CALM      30.23F
ST JOSEPH      CLOUDY    31  30  96 S5        30.23F FOG     WCI  26
CHILLICOTHE      N/A     34  30  85 CALM      30.25F
KIRKSVILLE     CLOUDY    32  29  88 SE7       30.26F FOG     WCI  26

$$
MOZ066>068-077>081-088>096-101>105-192100-
...SOUTHWEST MISSOURI...

CITY           SKY/WX    TMP DP  RH WIND       PRES   REMARKS
SPRINGFIELD    CLOUDY    39  36  89 CALM      30.19S
JOPLIN         FOG       38  38 100 N3        30.21F VSB 1/4

$$
MOZ032>034-039>042-045>050-055>058-069>072-192100-
...CENTRAL MISSOURI...

CITY           SKY/WX    TMP DP  RH WIND       PRES   REMARKS
COLUMBIA       CLOUDY    36  32  85 SE5       30.24F
JEFFERSON CITY CLOUDY    38  31  76 E6        30.26F
ROLLA          CLOUDY    35  31  85 CALM      30.21F
SEDALIA        CLOUDY    37  33  85 CALM      30.24F
WHITEMAN AFB   CLOUDY    36  34  93 SE3       30.23F
WARRENSBURG    CLOUDY    34  32  93 CALM      30.24F FOG
OSAGE BEACH    CLOUDY    37  32  81 E3        30.23F

$$
MOZ051-052-059>065-192100-
...EAST CENTRAL MISSOURI...

CITY           SKY/WX    TMP DP  RH WIND       PRES   REMARKS
ST LOUIS INTL  CLOUDY    38  27  64 CALM      30.30S
SPIRIT OF STL  CLOUDY    36  29  75 CALM      30.28F
ST CHARLES     CLOUDY    36  29  75 CALM      30.30S

$$
MOZ072>076-082>087-097>100-106>115-192100-
...SOUTH CENTRAL AND SOUTHEAST MISSOURI...

CITY           SKY/WX    TMP DP  RH WIND       PRES   REMARKS
CAPE GIRARDEAU CLOUDY    38  29  70 CALM      30.29F
FARMINGTON     CLOUDY    36  30  80 N5        30.26F
POPLAR BLUFF   CLOUDY    40  28  62 NE6       30.25F
WEST PLAINS    CLOUDY    35  32  88 E5        30.22F

$$


USA.gov is the U.S. government's official web portal to all federal, state and local government web resources and services.